Weather Service Report


152 
ASUS45 KABQ 202310
RWRNM 
NEW MEXICO REGIONAL WEATHER ROUNDUP
NATIONAL WEATHER SERVICE ALBUQUERQUE NM
500 PM MDT FRI JUL 20 2018

NOTE: "FAIR" MEANS FEW OR NO CLOUDS BELOW 12,000 FEET AGL WITH NO
       SIGNIFICANT WEATHER OR OBSTRUCTIONS TO VISION.

      THIS PRODUCT IS RELEASED AS TWO VERSIONS.  ONE VERSION NEAR
      THE TOP OF THE HOUR CONTAINING PRELIMINARY DATA FROM ALBUQUERQUE
      AND OTHER STATIONS.  A FINAL VERSION WITH ADDITIONAL DATA IS 
      ISSUED ABOUT 10 MINUTES AFTER THE HOUR.
 
NMZ501-503-504-510>518-210000-
NORTHWEST PLATEAU/NORTHCENTRAL MOUNTAINS
  
CITY           SKY/WX    TMP DP  RH WIND       PRES   REMARKS
FARMINGTON     FAIR      94  44  17 W12       30.10F                  
LOS ALAMOS     FAIR      85  40  20 NW10G16   30.29S                  
SANTA FE       FAIR      93  39  15 S10       30.18F                  
TAOS           FAIR      81  43  26 N16G22    30.31S                  
ANGEL FIRE     FAIR      75  42  30 N21       30.41S                  

$$
NMZ402-403-502-505>509-210000-
WESTCENTRAL MOUNTAINS/SOUTHWEST MOUNTAINS
  
CITY           SKY/WX    TMP DP  RH WIND       PRES   REMARKS
GALLUP         FAIR      90  46  21 NW6       30.21S                  
GRANTS         FAIR      78  44  29 W12       30.26S                  
SILVER CITY    FAIR      95  44  17 SE8       30.10F                  

$$
NMZ407-409-411-412-210000-
SOUTHERN DESERTS
  
CITY           SKY/WX    TMP DP  RH WIND       PRES   REMARKS
DEMING         FAIR     101  50  18 VRB3      29.99F HX  98           
LAS CRUCES     FAIR     103  35   9 E14       30.02F HX  96           
HOLLOMAN AFB   FAIR     104  31   8 S13       29.99F HX  97           
ALAMOGORDO     FAIR     102  34   9 S9        29.99F HX  96           
T OR C         FAIR     101  38  11 S9        30.03F HX  95           

$$
NMZ519>523-210000-
CENTRAL VALLEYS/CENTRAL HIGHLANDS
  
CITY           SKY/WX    TMP DP  RH WIND       PRES   REMARKS
ALBUQUERQUE    FAIR      97  38  13 SE5       30.08F                  
DOUBLE EAGLE   MOSUNNY   93  45  18 SE12      30.13F                  
MORIARTY ARPT  FAIR      96  39  13 E5        30.17F                  
CLINES CORNERS LGT RAIN  74  53  48 E13       30.30R                  
BELEN          FAIR      98  37  12 CALM      30.07F                  
SOCORRO        FAIR      99  39  12 E8G16     30.04F                  

$$
NMZ524>526-539-540-210000-
SOUTHCENTRAL MOUNTAINS
  
CITY           SKY/WX    TMP DP  RH WIND       PRES   REMARKS
RUIDOSO        FAIR      88  34  14 SE18      30.28F                  

$$
NMZ527>531-210000-
NORTHEAST HIGHLANDS/NORTHEAST PLAINS
  
CITY           SKY/WX    TMP DP  RH WIND       PRES   REMARKS
LAS VEGAS      CLOUDY    83  45  26 S17G24    30.28R                  
RATON          FAIR      88  41  19 NW14      30.19R                  
CLAYTON        FAIR      97  39  13 SW13      30.04F                  

$$
NMZ532>537-210000-
EASTCENTRAL PLAINS
  
CITY           SKY/WX    TMP DP  RH WIND       PRES   REMARKS
SANTA ROSA     FAIR     100  39  12 S16G25    30.04F HX  95           
TUCUMCARI      FAIR     105  46  13 S18       29.98F HX 101           
CANNON AFB     FAIR     102  39  11 SE13G23   30.05F HX  97           
CLOVIS AIRPORT FAIR      98  49  18 SE13      30.06F HX  95           

$$
NMZ028-029-538-210000-
SOUTHEAST PLAINS
  
CITY           SKY/WX    TMP DP  RH WIND       PRES   REMARKS
ROSWELL        FAIR     104  39  10 SE15G21   29.98F HX  98           
ARTESIA        FAIR     100  45  15 S13G21    29.98S HX  96           
CARLSBAD       FAIR     102  44  14 E13       29.95F HX  98           
HOBBS          SUNNY    100  39  12 SE15      30.01F HX  95           


$$
  

Return to Home page


Western Regional Climate Center, wrcc@dri.edu